Location: Geography Hall
(41.1195°N, 80.5706°W)
Time: 20:56:16
(UTC+00:00)

Cosmos 2058 Rocket - Pass Details

Date: 29 October 2020
Orbit: 610 x 640 km, 82.5° (Epoch: 03 December)

Event Time Altitude Azimuth Distance (km) Brightness Sun altitude
Rises 23:07:15 0° 184° (S) 2,913 6.7 -9.3°
Reaches altitude 10° 23:09:28 10° 184° (S) 2,013 5.9 -9.7°
Maximum altitude 23:13:56 84° 96° (E) 647 3.1 -10.5°
Drops below altitude 10° 23:18:28 10° 9° (N) 2,039 5.5 -11.4°
Sets 23:20:44 0° 9° (N) 2,954 6.4 -11.8°
